Location: Norton
(51.3000°N, 0.8167°E)
Time: 17:49:02
(UTC+00:00)

USA 186 - Pass Details

Date: 03 March 2021
Orbit: 261 x 430 km, 96.9° (Epoch: 11 April)

Event Time Altitude Azimuth Distance (km) Brightness Sun altitude
Exits shadow 18:28:29 12° 78° (ENE) 1,042 3.1 -8.2°
Maximum altitude 18:29:01 13° 64° (ENE) 1,020 3.2 -8.3°
Drops below altitude 10° 18:30:15 10° 34° (NE) 1,180 3.7 -8.5°
Sets 18:32:51 0° 4° (N) 2,057 5.2 -8.9°
